Lapse_Rate
6.5 6.5 6.6 6.9 7.1 7.0 7.1 6.9 6.9 6.6 6.0 5.7 5.4 5.9 6.2 5.8 5.6 5.4 5.0 4.8 4.8 4.9 5.4 5.4 5.2 5.3 5.3 5.6 5.7 5.9 6.0 5.9 6.0 5.9 6.0 6.0 6.1 6.1 6.1 6.3 6.1 5.8 5.8 5.7 5.6 5.3 5.7 6.1 6.0 6.0 6.0 5.9 6.0 6.1
6.8 7.0 7.0 7.1 7.4 7.3 7.2 6.9 6.9 7.2 7.0 6.6 6.0 6.2 5.8 5.7 5.5 5.6 5.3 4.8 4.4 4.5 5.2 5.2 5.1 5.2 5.2 5.4 5.6 5.7 5.8 6.0 6.1 6.1 6.3 6.2 6.1 5.9 6.3 6.3 6.0 6.1 6.2 6.1 5.8 5.9 5.9 6.0 5.8 5.9 6.0 6.0 6.0 6.1
7.1 7.5 7.4 7.7 7.4 7.3 7.1 6.9 7.0 7.3 7.7 7.2 6.7 6.3 6.2 5.7 5.5 5.4 5.3 5.0 4.5 4.3 5.0 5.1 5.3 4.9 5.2 5.3 5.5 5.6 5.7 5.9 6.1 6.3 6.3 6.3 6.1 6.0 6.1 6.1 6.2 6.1 6.0 6.0 6.1 6.3 6.1 5.9 5.8 5.9 5.7 5.8 6.0 6.1
7.1 7.4 7.5 7.5 7.5 7.5 7.2 7.0 7.0 7.5 7.8 7.5 6.8 6.5 6.2 5.8 5.7 5.5 5.1 4.6 4.2 3.5 3.7 5.4 5.0 4.7 4.9 5.1 5.3 5.6 5.8 5.9 6.0 6.1 6.4 6.3 6.1 6.1 6.2 6.2 6.2 6.3 6.3 6.4 6.3 6.3 6.1 6.1 5.8 5.8 5.8 5.8 6.0 6.1
7.5 7.5 7.5 7.4 7.5 7.5 7.1 6.8 7.0 7.4 7.3 6.9 6.5 6.5 6.2 5.7 5.7 5.6 5.2 4.5 3.6 3.2 3.3 4.7 4.4 5.1 5.0 5.2 5.4 5.5 5.6 5.8 6.4 6.4 6.4 6.4 6.2 6.2 6.1 5.9 6.1 6.3 6.5 6.1 6.5 6.3 6.1 5.8 5.9 5.9 5.9 6.1 6.0 6.1
7.5 7.7 7.5 7.4 7.5 7.5 7.2 6.8 7.1 7.4 6.3 6.3 6.2 6.4 6.2 5.8 5.6 5.3 5.0 4.6 3.6 2.6 2.2 3.6 4.6 4.5 4.6 4.5 5.0 5.4 6.0 5.9 6.5 6.8 6.7 6.4 6.4 6.2 5.9 5.8 6.6 6.9 6.7 6.5 6.4 6.7 6.5 6.1 5.7 5.6 5.7 5.9 6.0 6.1
7.5 7.4 7.6 7.7 7.8 7.7 6.8 7.1 7.2 6.4 6.4 6.1 6.1 6.3 6.1 5.8 5.4 5.2 4.6 4.2 3.9 3.9 4.1 4.9 5.7 5.3 5.0 4.7 5.1 5.5 6.1 6.7 6.9 6.9 6.6 6.4 6.4 6.2 5.9 5.8 7.3 7.2 6.8 6.4 6.4 6.5 6.5 6.3 6.1 5.8 5.6 5.7 5.9 6.0
7.4 7.6 7.7 7.8 7.7 7.0 6.5 6.6 6.8 6.4 6.2 6.1 6.3 6.4 6.0 5.6 5.4 5.3 4.8 4.7 4.4 4.4 4.6 5.2 6.2 6.4 6.2 6.1 6.1 6.3 6.2 6.7 7.0 6.8 6.7 6.5 6.5 6.2 5.8 7.2 7.4 7.0 6.9 6.6 6.4 6.4 6.4 6.4 6.1 5.9 5.7 5.6 5.7 5.9
7.1 7.4 7.8 7.8 7.4 6.2 6.4 6.6 5.8 5.4 5.9 6.2 6.3 6.2 5.7 5.7 5.4 5.3 5.2 5.1 4.9 4.9 5.1 5.4 6.2 6.8 7.0 7.0 6.7 6.8 7.0 6.9 6.7 6.6 6.5 6.6 6.4 6.1 6.7 6.8 6.9 6.8 6.5 6.5 6.5 6.6 6.6 6.6 6.3 6.0 5.8 5.5 5.6 5.5
7.8 8.0 8.2 8.2 7.4 7.0 6.5 5.9 5.6 5.6 5.9 6.1 6.2 5.9 5.3 5.6 5.6 5.7 5.5 5.1 5.2 5.4 5.8 6.2 6.2 6.6 6.7 6.8 6.8 6.6 6.7 6.7 6.5 6.5 6.5 6.3 6.3 6.8 7.0 6.8 6.6 6.4 6.1 6.1 6.3 6.2 6.3 6.4 6.2 6.0 6.0 5.9 5.7 5.6
8.2 8.3 8.4 7.5 7.2 6.8 6.3 5.9 5.7 6.0 6.1 6.3 6.1 5.6 5.5 5.5 5.9 5.6 5.6 5.4 5.5 5.7 6.0 6.2 6.3 6.5 6.8 6.6 6.8 6.8 6.8 6.7 6.7 6.7 6.2 6.2 6.8 7.5 7.0 6.9 6.8 5.8 6.0 5.6 5.7 6.1 6.2 6.2 6.2 6.1 6.0 5.8 5.7 5.7
7.8 7.7 7.1 6.7 6.4 6.2 5.9 6.0 6.2 6.9 6.4 6.3 6.0 5.2 5.4 5.6 5.9 5.8 5.7 5.7 5.7 5.9 5.8 6.0 6.3 6.4 6.5 6.7 6.6 6.5 6.7 6.5 6.4 6.3 6.3 6.5 7.4 7.0 6.9 6.7 6.4 6.2 6.2 6.3 6.3 6.3 6.3 5.9 6.0 6.0 5.9 5.9 5.9 5.9
7.2 6.6 6.2 6.2 6.1 6.0 7.0 6.7 6.8 6.7 6.1 5.8 5.3 5.0 5.6 5.8 5.9 5.8 5.8 5.8 6.1 5.9 5.9 6.1 6.3 6.6 6.5 6.6 6.5 6.5 6.6 6.4 6.5 6.2 6.2 6.8 7.1 7.0 6.8 6.2 6.2 6.3 6.1 6.1 6.1 6.0 6.2 6.3 6.0 5.8 5.9 5.6 5.7 5.9
6.3 6.1 6.6 6.6 6.3 6.4 6.8 6.8 6.6 6.1 5.9 5.6 4.7 5.3 5.7 5.8 5.9 6.0 6.4 6.6 6.6 6.4 6.3 6.1 6.3 6.5 6.4 6.4 6.4 6.3 6.3 6.3 6.1 5.9 6.2 6.7 6.7 6.8 6.9 6.5 6.2 6.2 6.1 6.1 6.2 6.2 6.1 6.0 6.0 6.0 6.0 6.1 5.9 5.9
6.6 7.0 7.3 6.8 6.9 7.1 6.7 6.8 6.4 6.0 5.8 5.2 4.9 5.6 5.5 5.8 6.0 6.0 6.3 6.3 6.3 6.2 6.2 6.0 6.1 6.1 6.2 6.2 6.2 6.3 6.2 6.0 6.0 6.1 6.4 6.4 6.7 6.8 6.8 6.7 6.4 6.5 6.5 6.3 6.2 6.2 6.1 6.0 5.9 6.0 5.9 5.9 6.0 6.0
7.7 7.1 7.1 7.3 6.8 6.8 6.5 6.4 6.2 5.8 5.6 4.9 5.3 5.4 5.7 6.0 6.1 6.0 5.9 5.8 6.0 6.0 5.9 5.8 5.9 6.0 6.1 6.2 6.0 5.8 5.8 6.0 6.3 6.4 6.5 6.7 6.7 6.6 6.6 6.6 6.5 6.5 6.4 6.4 6.4 6.3 6.3 6.2 6.2 6.1 6.1 6.2 6.3 6.2
7.8 7.1 6.9 6.7 6.7 6.5 6.5 6.3 5.8 5.3 5.3 4.3 5.2 5.7 5.9 6.1 6.2 6.1 6.1 6.2 6.2 6.0 6.0 5.9 6.0 5.9 6.0 5.9 6.0 6.2 6.6 6.5 6.6 6.6 6.7 6.7 6.5 6.3 6.4 6.4 6.3 6.3 6.2 6.2 6.2 6.2 6.2 6.2 6.3 6.4 6.4 6.5 6.4 6.4
6.9 6.8 6.6 6.5 6.4 6.4 6.2 5.9 5.4 5.1 5.1 5.2 5.5 5.8 6.0 6.3 6.0 6.3 6.1 6.1 6.2 6.1 5.9 5.9 5.8 5.9 5.9 6.0 6.7 6.8 6.6 6.5 6.5 6.4 6.4 6.4 6.4 6.5 6.2 5.8 5.9 5.9 5.9 5.8 5.9 5.9 5.9 5.9 5.9 6.0 6.1 6.1 6.3 6.3
6.8 6.5 6.2 6.2 6.3 6.2 5.8 5.4 5.3 5.3 5.7 5.7 5.5 5.6 5.8 6.1 5.9 5.8 5.8 5.9 6.1 6.2 6.0 5.8 5.7 5.8 6.2 6.5 6.7 6.6 6.4 6.3 6.1 6.1 6.2 6.3 6.4 6.3 6.2 6.1 6.0 6.0 5.9 5.8 5.8 5.7 5.7 5.6 5.7 5.8 5.9 6.0 6.1 6.1
6.2 6.2 6.2 6.0 5.8 5.5 5.5 5.6 5.5 5.5 5.7 5.7 5.6 5.6 5.6 5.6 5.6 5.4 5.4 5.6 5.7 5.8 5.8 5.7 6.0 6.1 6.1 6.2 6.3 6.3 6.1 5.9 5.9 6.0 6.0 5.9 5.8 5.7 5.5 5.7 5.8 5.8 5.8 5.9 5.8 5.8 5.9 6.0 6.1 6.1 6.1 6.1 6.2 6.3
6.2 6.0 5.6 5.5 5.4 5.5 5.6 5.6 5.6 5.7 5.6 5.5 5.8 5.7 5.7 5.5 5.3 5.5 5.6 5.5 5.5 5.8 6.2 6.3 6.4 6.0 5.9 5.7 5.5 5.6 5.7 5.8 5.7 5.6 5.5 5.3 5.2 5.2 5.2 5.3 5.4 5.4 5.4 5.5 5.6 5.7 5.7 5.7 5.8 5.9 5.9 5.9 6.0 6.1
5.9 5.8 5.7 5.7 5.5 5.5 5.6 5.7 5.8 5.8 5.8 5.9 5.9 5.6 5.5 5.5 5.5 5.4 5.6 5.4 5.5 6.1 6.2 5.9 5.5 5.4 5.9 6.0 5.9 5.9 5.9 5.9 5.9 5.8 5.6 5.5 5.4 5.2 5.1 5.1 5.2 5.3 5.3 5.3 5.4 5.4 5.4 5.5 5.6 5.6 5.6 5.7 5.7 5.8
6.0 6.0 5.9 5.8 6.0 6.2 6.2 6.0 6.1 6.1 6.1 6.0 6.0 5.9 5.9 5.7 5.7 5.7 5.6 5.8 6.0 6.1 5.5 5.5 5.7 5.9 5.9 5.8 5.8 5.8 5.9 5.9 5.9 5.7 5.7 5.7 5.5 5.4 5.4 5.3 5.3 5.2 5.2 5.3 5.2 5.2 5.2 5.3 5.4 5.6 5.7 5.8 5.8 5.8
6.3 6.3 6.4 6.5 6.5 6.5 6.5 6.5 6.5 6.4 6.3 6.3 6.2 6.2 6.1 6.0 5.9 5.8 5.8 5.7 5.7 5.7 5.7 5.5 5.5 5.6 5.7 5.7 5.6 5.4 5.4 5.6 5.7 5.7 5.5 5.4 5.4 5.4 5.4 5.3 5.3 5.3 5.4 5.4 5.3 5.2 5.3 5.3 5.3 5.3 5.4 5.6 5.7 5.7
6.7 6.7 6.8 6.9 7.1 7.1 7.1 7.0 7.1 7.0 6.9 6.8 6.6 6.5 6.5 6.4 6.3 6.2 6.2 6.1 5.8 5.5 5.5 5.5 5.3 5.3 5.5 5.6 5.6 5.4 5.4 5.3 5.2 5.2 5.3 5.4 5.5 5.7 5.6 5.5 5.4 5.4 5.5 5.4 5.3 5.4 5.3 5.4 5.4 5.3 5.4 5.4 5.4 5.4
7.1 7.3 7.3 7.5 7.5 7.5 7.4 7.4 7.4 7.3 7.3 7.3 7.2 7.0 6.8 6.7 6.4 6.3 6.3 6.2 6.1 6.1 6.0 5.8 5.5 5.3 5.3 5.2 5.3 5.2 5.2 5.2 5.1 5.1 5.1 5.2 5.2 5.3 5.3 5.4 5.4 5.3 5.5 5.4 5.4 5.4 5.5 5.5 5.5 5.5 5.5 5.4 5.4 5.5
7.6 7.7 7.8 7.9 7.8 7.7 7.5 7.4 7.4 7.4 7.3 7.4 7.4 7.4 7.3 7.2 7.0 6.8 6.7 6.6 6.4 6.3 6.3 6.3 6.3 6.2 6.1 5.9 5.7 5.5 5.5 5.4 5.4 5.4 5.4 5.4 5.3 5.3 5.3 5.3 5.3 5.3 5.3 5.3 5.4 5.4 5.4 5.4 5.5 5.5 5.5 5.4 5.5 5.6
7.9 8.0 7.9 7.8 7.6 7.5 7.4 7.4 7.3 7.3 7.3 7.3 7.2 7.2 7.3 7.3 7.3 7.2 7.2 7.2 7.1 7.0 7.0 6.9 6.7 6.6 6.4 6.2 6.1 5.9 5.8 5.7 5.6 5.6 5.6 5.5 5.3 5.2 5.1 5.2 5.3 5.3 5.3 5.3 5.2 5.3 5.3 5.4 5.4 5.4 5.5 5.5 5.5 5.5
7.7 7.6 7.4 7.4 7.2 7.2 7.2 7.2 7.1 7.1 7.1 7.0 7.0 7.1 7.2 7.2 7.0 6.9 6.9 7.1 7.3 7.4 7.5 7.2 7.0 7.0 6.9 6.7 6.5 6.3 6.2 6.0 5.9 5.8 5.7 5.6 5.3 5.2 5.2 5.4 5.3 5.3 5.4 5.4 5.4 5.4 5.5 5.5 5.4 5.5 5.6 5.6 5.6 5.6
7.1 7.0 7.1 7.3 7.3 7.3 7.3 7.1 7.1 7.0 7.0 6.9 6.9 7.1 7.2 7.3 7.3 7.3 7.4 7.4 7.4 7.5 7.5 7.6 7.7 7.4 7.1 6.9 6.9 6.6 6.4 6.3 6.1 6.0 6.1 6.0 5.8 5.6 5.6 5.5 5.5 5.5 5.5 5.5 5.6 5.6 5.6 5.7 5.8 5.8 5.7 5.7 5.7 5.7
7.3 7.4 7.4 7.3 7.2 7.3 7.2 7.1 7.1 7.1 7.0 7.1 7.0 7.2 7.4 7.4 7.8 7.6 7.5 7.6 7.5 7.3 7.1 7.2 7.3 7.5 7.6 7.4 7.3 7.2 6.9 6.4 6.4 6.4 6.3 6.4 6.3 6.2 6.1 5.9 5.8 5.7 5.6 5.6 5.6 5.7 5.7 5.8 5.7 5.6 5.5 5.5 5.5 5.5
7.3 7.2 7.2 7.1 7.0 7.0 6.9 6.9 6.8 6.8 6.8 6.8 6.8 6.9 7.0 6.9 7.0 7.2 7.4 7.2 7.2 7.1 7.1 7.0 7.0 7.3 7.5 7.6 7.5 7.3 7.2 6.8 6.7 6.6 6.5 6.5 6.4 6.3 6.2 6.0 5.9 5.9 5.9 6.0 5.9 5.8 5.8 5.7 5.6 5.6 5.6 5.5 5.4 5.5
7.5 7.3 7.0 6.8 6.7 6.6 6.6 6.5 6.6 6.5 6.9 7.0 6.9 6.8 6.9 6.8 6.8 6.8 6.8 6.7 6.5 6.3 6.4 6.7 7.1 7.5 7.6 7.5 7.4 7.2 7.0 6.9 6.9 6.7 6.6 6.5 6.4 6.3 6.2 6.1 6.1 6.1 6.0 5.9 5.8 5.7 5.6 5.5 5.5 5.5 5.5 5.3 5.1 5.3
Wind_Speed
21 22 23 21 20 20 18 16 15 13 11 8 10 10 8 9 6 4 3 3 3 4 10 8 8 8 6 5 3 3 4 4 5 5 3 3 5 5 4 4 6 8 6 4 5 4 7 4 4 4 4 3 3 4
17 20 22 23 23 22 21 19 18 16 11 10 10 9 12 11 12 8 4 4 5 5 6 11 15 17 16 12 5 4 2 1 7 5 4 2 3 1 6 3 8 5 6 3 7 4 3 2 2 3 1 4 7 4
10 16 21 23 25 23 23 22 20 18 14 12 13 11 10 12 9 8 6 2 1 4 10 10 9 8 13 18 9 3 4 3 3 3 2 1 5 4 4 7 7 8 7 4 3 5 11 8 7 1 3 3 4 3
11 15 19 22 24 26 25 23 22 20 18 15 13 12 11 12 11 11 4 3 3 3 5 6 6 10 6 11 16 18 14 8 7 4 3 4 4 4 3 2 6 1 9 8 10 10 5 6 7 6 2 4 2 4
14 14 17 22 25 27 27 25 23 21 18 14 12 9 10 11 9 10 9 8 10 4 5 10 18 23 21 16 12 17 14 11 5 4 4 5 2 3 3 2 7 8 8 7 5 3 5 6 7 2 2 3 3 5
17 18 18 17 23 29 30 28 25 22 18 14 11 10 9 8 4 2 3 1 9 7 3 4 5 11 7 16 18 15 11 7 4 4 3 3 1 4 3 5 4 6 10 9 9 4 2 1 1 3 4 5 4 4
19 20 20 21 22 26 29 26 23 20 17 14 11 10 9 9 6 3 2 2 3 3 2 4 4 4 4 9 8 5 9 4 4 3 3 3 3 4 3 8 4 5 6 5 3 2 6 6 2 1 5 5 5 5
22 22 22 21 21 23 31 25 24 22 18 13 9 8 8 11 9 6 9 9 13 2 2 4 4 3 7 4 5 5 3 7 5 2 1 3 3 3 5 8 11 9 4 5 6 3 4 3 5 4 4 4 6 7
25 23 24 23 22 22 25 29 26 21 15 10 7 4 3 4 3 0 7 16 6 3 2 3 3 2 3 2 3 3 2 3 1 5 4 3 3 7 6 7 7 6 7 4 5 3 4 6 6 6 6 6 7 8
26 25 26 24 21 21 23 26 23 20 13 9 2 3 3 3 18 14 2 3 3 3 3 3 3 3 1 5 2 4 2 3 3 2 3 3 5 11 3 1 5 5 4 3 3 4 2 4 5 7 8 8 8 9
28 28 26 24 23 21 19 29 28 25 16 3 4 3 2 11 3 3 4 4 4 4 4 4 4 3 0 1 2 2 1 1 2 2 2 3 4 3 5 4 3 3 1 2 4 4 4 6 7 8 9 9 9 10
29 28 26 27 22 27 24 32 32 8 4 4 2 2 1 3 3 4 4 4 5 3 5 3 2 2 1 1 2 2 2 1 1 3 2 3 1 5 6 4 2 2 1 2 2 3 3 5 5 6 7 8 9 9
29 27 26 22 21 16 34 34 28 19 12 2 2 2 3 4 6 5 6 4 3 3 3 1 2 0 1 1 2 1 3 1 3 2 3 3 4 5 5 5 4 3 2 1 1 1 3 4 4 4 6 6 8 7
25 27 22 22 22 27 37 36 30 19 3 3 5 5 5 5 5 4 4 1 2 1 2 1 1 0 1 1 1 2 1 2 3 3 3 2 6 7 6 5 5 2 2 1 2 2 2 3 3 3 4 6 6 6
24 16 16 23 32 37 33 31 26 4 3 3 4 5 6 2 0 2 2 1 0 1 2 2 1 0 1 2 1 2 2 3 4 2 1 3 7 7 7 7 6 4 2 2 2 3 4 5 5 4 5 6 5 4
18 10 10 35 33 34 36 25 5 1 1 2 4 3 3 2 2 1 1 2 1 1 2 1 1 1 2 1 2 3 2 4 1 1 2 6 8 8 8 6 5 4 2 1 2 3 3 4 5 5 4 6 6 6
16 4 28 32 30 34 21 4 2 2 3 3 3 3 3 2 2 1 1 1 2 1 2 1 3 3 2 2 2 2 4 1 0 2 3 6 8 8 7 7 6 4 3 1 1 2 3 4 4 4 5 7 7 6
11 19 34 37 22 9 2 2 2 4 5 3 3 2 2 1 1 1 1 1 1 1 1 1 1 3 3 4 3 3 3 1 1 1 3 6 6 6 4 6 5 4 3 1 1 1 2 3 3 3 4 5 5 5
17 19 33 26 7 4 2 2 1 3 3 1 1 1 1 0 1 1 2 1 1 1 0 1 2 3 3 2 2 1 1 1 1 2 3 5 7 7 6 4 4 3 2 1 2 1 1 2 2 2 3 4 4 3
33 27 20 12 4 2 3 2 1 1 1 1 1 2 1 1 1 1 1 1 1 1 2 3 4 3 2 2 2 2 2 1 3 3 3 4 4 4 5 5 4 3 3 2 2 3 2 2 2 2 2 3 3 4
12 7 11 4 2 4 3 1 1 1 1 1 1 1 1 1 1 1 1 1 1 2 3 3 3 3 2 1 1 2 2 2 4 2 1 4 6 5 4 4 3 3 3 3 3 3 3 3 2 2 2 3 3 4
3 6 3 3 3 2 3 3 1 1 1 1 1 1 1 1 1 1 2 3 3 3 2 2 2 2 1 3 3 3 3 3 2 1 2 5 5 4 4 5 5 4 3 3 2 3 2 1 2 3 3 4 4 4
7 3 3 2 3 2 1 1 1 2 1 2 1 2 1 1 1 2 2 2 3 3 2 2 2 1 4 4 3 4 3 4 4 4 3 3 1 2 3 4 5 4 3 3 3 3 3 3 3 4 3 3 4 4
5 3 3 2 2 2 0 2 2 1 0 1 1 1 1 0 2 1 2 2 3 1 2 3 2 3 2 2 4 4 3 4 4 2 3 4 3 3 3 3 3 3 2 1 2 3 3 3 4 3 3 3 4 5
2 3 1 3 1 3 2 2 0 1 2 1 1 1 1 1 1 2 2 3 2 2 3 2 2 4 4 3 2 3 2 4 4 5 4 4 2 2 2 3 3 3 3 3 4 4 4 3 3 4 4 4 5 6
3 1 0 2 2 2 4 3 3 3 2 2 2 1 0 1 2 4 2 2 2 2 2 2 1 1 3 4 3 1 1 3 3 4 2 5 5 4 4 4 3 3 5 5 3 4 4 4 4 4 5 7 10 7
2 2 1 2 2 3 2 2 2 1 2 3 3 3 2 2 4 3 1 2 1 1 0 0 1 3 3 1 2 2 1 2 2 1 2 2 4 5 4 4 5 2 4 5 4 5 5 5 5 5 6 5 5 6
2 1 1 2 1 1 2 1 3 4 3 3 4 3 4 5 3 2 2 0 1 0 1 2 3 3 3 3 3 2 1 1 0 2 4 4 4 3 4 2 2 5 3 3 4 4 4 4 5 5 6 7 6 6
1 2 3 2 0 2 3 4 3 1 1 3 3 3 3 3 2 2 2 1 0 1 3 3 3 3 3 3 3 4 3 3 5 5 6 6 2 4 5 4 3 3 3 3 8 8 7 5 5 6 8 7 7 5
2 2 2 2 2 3 1 2 0 1 1 2 2 3 2 3 3 1 2 2 3 5 6 5 3 4 5 4 4 4 5 6 7 8 7 7 4 2 3 3 3 3 3 3 3 3 6 5 5 3 4 4 5 6
2 2 1 2 3 1 2 2 2 2 2 2 2 3 4 3 4 3 6 6 8 7 6 8 8 6 6 6 6 6 6 5 9 11 8 1 2 2 2 2 2 2 3 3 3 3 4 4 4 5 5 7 8 9
1 1 1 2 3 1 1 1 1 2 2 3 3 3 2 2 4 3 3 4 4 6 13 10 6 6 4 5 1 2 4 1 1 3 6 5 4 3 3 2 2 3 3 3 4 4 5 6 5 6 6 8 8 8
2 0 1 2 3 3 1 2 2 3 2 3 4 4 3 2 6 3 1 2 3 2 1 1 2 2 1 1 1 1 3 2 2 4 4 4 5 6 4 3 3 4 5 5 5 5 6 8 8 8 8 8 9 8
Wind_Direction
221 222 216 217 214 220 227 228 237 244 246 264 278 288 281 266 279 225 302 252 291 277 287 266 263 268 297 258 261 91 156 208 187 224 216 206 245 203 220 210 187 187 189 201 209 225 253 130 136 228 56 89 21 341
236 225 226 217 212 217 223 228 231 237 234 245 260 271 286 261 260 228 262 215 241 252 281 302 273 268 263 267 275 280 317 219 209 219 219 235 206 175 232 243 197 211 216 188 211 215 93 153 358 32 51 352 351 341
283 243 232 226 221 219 219 223 226 236 228 238 252 257 271 281 235 236 259 154 222 278 283 248 258 236 239 237 207 281 238 313 245 325 291 238 242 196 205 237 219 228 208 239 200 234 236 229 205 236 90 60 4 325
299 274 250 241 232 224 218 222 225 231 224 239 243 263 270 282 240 250 247 201 205 290 274 282 273 262 257 241 207 203 255 310 306 274 233 220 230 202 239 5 254 9 166 222 244 262 256 242 206 179 166 106 307 276
293 294 285 249 235 222 219 219 224 227 226 238 251 254 259 275 258 273 270 251 223 218 289 296 296 271 243 231 214 210 228 244 273 237 220 214 192 204 213 282 248 210 227 223 242 3 254 58 79 86 280 350 308 287
289 289 286 280 249 228 221 217 218 218 218 224 237 257 270 245 257 268 286 189 249 216 283 288 285 279 260 209 204 207 201 217 245 237 222 228 123 216 247 256 254 238 229 276 270 32 318 67 353 49 350 335 319 300
281 281 284 285 276 241 225 222 215 213 219 217 230 247 250 243 230 202 284 39 134 92 258 276 269 277 210 179 183 175 185 211 230 239 223 211 205 198 252 236 215 213 232 225 230 236 254 225 212 283 302 298 296 280
278 274 274 277 279 279 239 208 206 209 205 209 228 249 253 265 256 243 230 165 155 204 243 272 273 268 177 148 180 193 152 208 199 228 207 214 172 211 248 247 246 258 194 206 210 221 309 318 283 288 310 293 279 269
274 275 276 274 283 283 235 205 197 196 181 201 216 247 253 215 225 189 179 174 201 252 272 246 279 328 137 117 232 164 137 144 220 200 182 162 183 224 238 251 249 202 202 219 176 236 259 266 282 290 288 281 268 271
271 270 272 272 281 279 246 188 182 165 167 157 172 214 234 208 115 115 110 172 207 212 224 255 261 265 47 176 209 134 188 166 161 167 134 230 245 247 186 103 20 115 146 147 217 236 246 268 272 285 287 291 284 281
270 267 268 274 280 264 274 182 164 146 140 141 193 236 70 150 177 204 207 208 187 224 208 232 240 276 154 331 79 77 124 117 163 154 218 228 254 186 142 118 84 94 118 220 269 300 285 285 291 295 297 299 292 283
266 267 267 275 265 274 244 164 149 139 143 139 126 87 159 205 211 229 208 197 210 242 184 232 174 242 94 4 91 172 116 201 181 126 223 248 167 125 145 137 150 190 199 244 277 300 317 308 304 299 299 301 300 297
267 263 258 253 266 244 159 149 153 126 120 127 193 220 198 188 225 227 209 197 215 193 208 176 170 11 149 148 87 141 174 166 117 206 238 250 131 145 145 144 131 74 70 69 57 23 341 325 325 330 320 321 317 313
263 265 249 242 262 187 157 152 141 141 129 190 185 232 215 194 227 207 248 14 82 128 134 75 58 57 59 57 96 135 88 163 229 230 229 131 169 155 149 143 125 103 114 107 62 21 3 347 332 333 342 334 338 348
257 257 250 257 150 139 145 139 142 140 161 188 202 233 225 288 354 339 321 267 168 128 105 131 51 284 34 122 158 113 183 238 235 257 77 141 143 148 149 148 145 146 113 67 30 18 8 1 1 3 8 1 357 346
241 201 126 126 132 140 136 128 114 122 95 223 230 258 231 269 186 209 249 266 214 133 95 3 123 177 168 199 184 204 247 237 206 132 116 137 151 154 152 151 147 138 121 70 30 13 1 3 355 345 354 13 360 358
96 116 135 130 129 115 107 84 101 169 218 211 232 243 265 297 324 26 315 334 330 210 142 160 192 178 106 188 221 201 223 280 95 125 148 162 162 160 155 148 153 154 150 133 79 26 2 352 337 3 5 358 349 350
117 133 132 120 108 75 59 62 124 177 217 213 228 176 213 261 285 280 7 351 327 161 107 215 62 197 211 205 210 209 214 109 67 98 152 157 158 146 153 158 161 159 153 135 55 325 325 339 345 5 346 341 326 352
125 123 127 126 108 101 103 134 260 218 208 194 240 224 239 264 263 296 303 5 25 348 127 165 235 213 220 255 320 14 5 226 158 150 146 156 163 169 160 120 134 158 174 204 233 280 315 313 313 326 327 328 329 341
120 117 107 90 76 100 117 105 267 189 172 88 183 195 267 358 14 322 319 326 297 254 211 217 221 231 294 9 355 349 16 176 152 154 173 186 176 147 170 172 185 167 189 191 224 240 254 262 227 306 321 322 321 330
85 79 57 51 54 48 72 95 99 48 115 198 136 203 256 278 234 183 212 346 253 233 239 224 234 268 95 309 324 318 298 219 228 265 214 186 184 191 175 180 162 183 213 211 228 226 231 259 292 301 296 301 314 311
86 103 95 44 80 61 83 24 34 90 216 74 133 321 230 254 243 113 327 225 242 243 227 227 244 303 304 274 285 241 300 282 252 206 120 120 161 185 200 191 181 203 213 222 223 245 258 263 271 277 281 298 307 309
105 63 63 72 99 61 63 289 114 13 197 141 193 207 182 190 29 314 264 262 276 248 243 260 275 264 266 293 283 265 239 240 236 226 212 204 177 158 157 175 189 189 197 214 204 224 232 224 251 263 273 283 297 303
47 54 62 60 44 109 130 53 44 69 154 180 189 187 158 56 334 238 259 253 243 271 236 239 238 287 251 248 255 249 224 213 241 230 206 188 195 202 194 187 186 203 208 129 187 217 225 239 249 248 254 275 289 292
101 6 359 72 85 108 111 136 127 188 190 182 180 178 148 316 235 242 240 258 237 246 246 234 250 246 253 268 269 245 184 202 210 227 199 210 175 119 189 221 226 220 178 194 215 226 236 222 231 238 249 261 276 286
86 337 23 149 144 174 172 148 193 194 140 159 193 80 259 220 244 245 225 219 230 231 215 211 220 245 249 230 268 251 244 193 204 228 204 188 197 195 199 192 209 232 194 204 203 219 219 206 221 226 247 262 271 280
134 202 138 50 66 104 88 61 67 167 167 198 163 165 162 205 242 246 270 220 226 191 130 27 237 257 280 288 239 241 155 197 211 308 345 265 227 225 212 200 212 200 150 170 184 197 206 205 222 236 249 255 250 245
64 154 102 117 78 15 141 168 185 210 202 167 143 189 197 207 242 230 215 156 251 294 272 249 227 230 253 269 297 288 212 148 165 289 276 253 228 228 219 217 164 157 158 173 183 182 204 225 234 238 246 255 261 248
135 127 128 74 339 217 226 206 231 209 102 172 196 218 239 231 272 253 226 174 120 252 271 263 242 192 234 237 237 233 220 189 179 204 234 249 242 236 194 191 180 190 201 203 228 222 204 220 229 241 248 251 255 259
164 147 107 123 168 239 230 189 313 12 280 292 298 286 256 252 245 205 217 213 233 239 243 249 237 187 238 218 246 221 206 208 215 225 232 238 235 112 148 162 175 175 175 189 202 224 255 268 285 290 280 273 268 263
78 128 116 219 249 267 46 356 285 254 231 233 204 240 259 308 307 239 218 230 237 245 247 254 252 216 225 231 231 250 260 204 218 227 239 162 142 147 156 165 150 158 183 202 211 223 234 250 251 261 267 266 265 271
143 158 172 258 269 108 237 219 278 257 211 232 232 204 280 262 256 254 214 178 195 228 238 242 242 253 200 235 266 276 267 84 164 217 210 220 201 192 187 188 176 189 203 215 224 235 234 239 250 246 251 257 259 262
84 40 34 289 292 276 83 290 275 288 230 246 242 210 218 246 250 280 73 224 250 283 334 321 331 331 350 253 266 220 178 100 139 141 141 159 172 184 184 194 200 207 212 225 231 232 241 243 250 253 252 253 259 261